#timestamp,LO_Frequency,Hit,StdDev 
1573387215.4,286046998.2,N
1573387235.2,286046999.7,N
1573387255.0,286047002.8,N
1573387256.0,286047002.8,N
1573387275.8,286047002.0,N
1573387295.6,286047000.4,N
1573387315.5,286047000.5,N
1573387335.3,286046998.2,N
1573387355.1,286047000.8,N
1573387375.9,286046998.1,N
1573387395.7,286047001.6,N
1573387415.5,286047000.3,N
1573387435.4,286047011.9,Y
1573387455.2,286047002.5,P
1573387475.1,286047001.3,N
1573387476.0,286047001.3,N
1573387495.8,286047003.1,Y
1573387515.6,286047003.6,P
1573387535.5,286047001.7,N
1573387555.3,286046999.8,N
1573387575.2,286047000.1,N
1573387595.9,286047001.2,N
1573387615.7,286047002.7,N
1573387635.6,286047002.6,N
1573387655.4,286047004.1,Y
1573387675.3,286046999.7,P
1573387695.1,286046998.5,N
1573387696.0,286046998.5,N
1573387715.8,286046999.3,N
1573387735.7,286046998.8,N
1573387755.5,286046996.5,Y
1573387775.3,286046997.0,P
1573387795.2,286046999.4,N
1573387815.0,286046995.0,P
1573387815.9,286046995.0,N
1573387835.8,286046995.4,N
1573387855.6,286046995.5,N
1573387875.4,286046995.8,N
1573387895.3,286046997.6,N
1573387915.1,286046995.0,Y
1573387935.8,286046996.6,P
1573387955.7,286046999.5,P
1573387975.5,286046996.9,N
1573387995.4,286046995.1,Y
1573388015.2,286046996.5,P
1573388035.0,286046996.9,P
1573388035.9,286046996.9,P
1573388055.8,286046998.0,Y
1573388075.6,286047000.0,P
1573388095.4,286047002.8,N
1573388115.3,286047002.3,N
1573388135.1,286047000.0,N
1573388155.9,286047001.7,N
1573388175.7,286047002.8,N
1573388195.5,286047000.4,N
1573388215.4,286047002.1,N
1573388235.2,286047002.8,N
1573388255.0,286047000.3,N
1573388255.9,286047000.3,N
1573388275.8,286047000.0,N
1573388295.6,286047000.5,N
1573388315.5,286047002.8,N
1573388335.3,286047000.2,N
1573388355.1,286047001.3,N
1573388375.9,286047004.1,N
1573388395.7,286047003.9,N
1573388415.5,286047006.0,Y
1573388435.4,286047001.3,P
1573388455.2,286047003.5,P
1573388475.1,286047003.6,P
1573388476.0,286047003.6,Y
1573388495.8,286047000.9,P
1573388515.6,286046999.8,N
1573388535.5,286047000.3,N
1573388555.3,286047000.4,N
1573388575.1,286047000.4,N
1573388595.9,286046998.1,N
1573388615.7,286047000.7,N
1573388635.6,286047000.0,N
1573388655.4,286047002.4,N
1573388675.2,286047001.7,N
1573388695.1,286046999.7,N
1573388696.0,286046999.7,N
1573388715.8,286046999.7,N
1573388735.6,286047000.0,N
1573388755.5,286046998.3,N
1573388775.3,286046998.6,N
1573388795.2,286046998.5,N
1573388815.9,286046998.5,N
1573388835.7,286046998.8,N
1573388855.6,286046998.6,N
1573388875.4,286046998.4,N
1573388895.2,286047011.9,Y
1573388915.1,286046996.5,P
1573388916.0,286046996.5,N
1573388935.8,286046997.0,N
1573388955.7,286046996.5,N
1573388975.5,286046997.0,N
1573388995.3,286046996.6,N
1573389015.2,286047000.6,N
1573389035.0,286047000.5,N
1573389035.9,286047000.5,N
1573389055.7,286047000.8,N
1573389075.6,286047000.0,N
1573389095.4,286046998.3,N
1573389115.3,286046999.4,N
1573389135.1,286046999.4,N
1573389136.0,286046999.4,N
1573389155.8,286046997.0,N
1573389175.7,286046997.4,N
1573389195.5,286046995.3,N
1573389215.3,286046995.9,N
1573389235.2,286046999.5,N
1573389255.0,286046997.5,N
1573389255.9,286046997.5,N
1573389275.8,286046995.7,N
1573389295.6,286046995.6,N
1573389315.4,286046995.6,N
1573389335.3,286046993.3,Y
1573389355.1,286046997.4,P
1573389375.8,286046997.9,P
1573389395.7,286046997.1,P
1573389415.5,286046997.3,Y
1573389435.4,286047000.8,P
1573389455.2,286047000.5,N
1573389475.0,286047002.7,N
1573389475.9,286047002.7,N
1573389495.8,286046999.9,N
1573389515.6,286046999.7,N
1573389535.4,286047002.3,N
1573389555.3,286047002.1,N
1573389575.1,286047003.8,N
1573389595.9,286047003.2,N
1573389615.7,286047001.7,N
1573389635.5,286047000.0,N
1573389655.4,286046999.7,N
1573389675.2,286046997.0,N
1573389695.0,286046999.6,N
1573389695.9,286046999.6,N
1573389715.8,286046998.5,N
1573389735.6,286047001.1,N
1573389755.5,286046996.6,N
1573389775.3,286046998.2,N
1573389795.1,286046996.6,N
1573389815.9,286046999.1,N
1573389835.7,286046996.8,N
1573389855.5,286046997.3,N
1573389875.4,286046997.4,N
1573389895.2,286046995.0,N
1573389915.1,286046995.2,N
1573389916.0,286046995.2,N
1573389935.8,286046997.5,N
1573389955.6,286046995.0,N
1573389975.5,286046999.3,N
1573389995.3,286046996.6,N
1573390015.1,286046996.8,N
1573390035.9,286046996.9,N
1573390055.7,286046997.2,N
1573390075.6,286046997.4,N
1573390095.4,286046997.6,N
1573390115.2,286046997.7,N
1573390135.1,286046995.0,N
1573390136.0,286046995.0,N
1573390155.8,286046996.4,N
1573390175.6,286046995.7,N
1573390195.5,286046994.4,Y
1573390215.3,286046993.4,P
1573390235.2,286046998.0,N
1573390255.9,286046997.2,N
1573390275.7,286046996.6,N
1573390295.6,286046996.5,N
1573390315.4,286046999.6,N
1573390335.2,286046999.6,N
1573390355.1,286046996.5,N
1573390356.0,286046996.5,N
1573390375.8,286046998.2,N
1573390395.7,286046998.4,N
1573390415.5,286046998.6,N
1573390435.3,286046999.0,N
1573390455.2,286046999.2,N
1573390475.9,286046996.6,N
1573390495.7,286047001.0,N
1573390515.6,286047000.4,N
1573390535.4,286047000.4,N
1573390555.3,286047000.4,N
1573390575.1,286047002.7,N
1573390576.0,286047002.7,N
1573390595.8,286046999.7,N
1573390615.7,286047004.3,N
1573390635.5,286047002.3,N
1573390655.3,286047003.6,N
1573390675.2,286047005.7,N
1573390695.0,286047003.2,N
1573390695.9,286047003.2,N
1573390715.8,286047003.6,N
1573390735.6,286047001.8,N
1573390755.4,286047003.3,N
1573390775.3,286047003.5,N
1573390795.1,286047004.1,N
